www.pogodaiklimat.ru
Время
(UTC), дата
09 7.12
12 7.12
15 7.12
18 7.12
21 7.12
00 8.12
03 8.12
06 8.12
09 8.12
12 8.12
15 8.12
18 8.12
21 8.12
00 9.12
03 9.12
06 9.12
09 9.12
12 9.12
15 9.12
18 9.12
21 9.12
00 10.12
03 10.12
06 10.12
09 10.12
12 10.12
15 10.12
18 10.12
21 10.12
00 11.12
03 11.12
06 11.12
09 11.12
12 11.12
15 11.12
18 11.12
21 11.12
00 12.12
03 12.12
06 12.12
09 12.12
12 12.12
15 12.12
18 12.12
21 12.12
00 13.12
03 13.12
06 13.12
09 13.12
12 13.12
15 13.12
18 13.12
21 13.12
00 14.12
03 14.12
Ветер
(напр.,м/с)
Видим. Явления Облачность Т
(С)
Тd
(С)
f
(%)
Тe
(С)
Тes
(С)
Комфортность P
(гПа)
Po
(гПа)
Тmin
(С)
Tmax
(С)
R
(мм)
R24
(мм)
S
(см)
Ю 8-11
{13}
4000 м слаб. ливневой снег {метель} 10/10 450 м
[Cb cap]
-18.9 -20.1 90 -31 -31 опасность
обморожения
981.8 975.7
ЮЗ 7-10
{12}
4000 м слаб. ливневой снег {метель} 10/10 420 м
[Cb cap]
-19.0 -20.3 89 -30 -30 по сезону 983.6 977.5 -18.2 0.5
ЮЗ 7
{12}
20 км позёмок {ливн. осадки} 6/0
[Ci fib]
-19.9 -21.5 87 -32 -32 опасность
обморожения
985.9 979.7
ЮЗ 6
{11}
20 км позёмок {ливн. осадки} 4/0
[Ci fib]
-20.4 -21.7 89 -31 -31 опасность
обморожения
988.6 982.4
Ю 5 4000 м слаб. ливневой снег {метель} 10/6 420 м
[Cb cap Ac trans Ci fib]
-20.3 -21.7 89 -30 -30 по сезону 991.0 984.8
Ю 6 4000 м позёмок {ливн. осадки} 8/0
[Ci fib]
-20.5 -21.9 89 -32 -32 опасность
обморожения
993.5 987.2 -20.6 0.2 15
Ю 6 4000 м позёмок 4/0
[Ci fib]
-23.9 -25.7 85 -36 -36 опасность
обморожения
995.8 989.5 -23.9
Ю 6
{10}
4000 м позёмок 6/0
[Ac trans Ci fib]
-23.9 -25.7 85 -36 -36 опасность
обморожения
997.6 991.3
Ю 6
{10}
4000 м позёмок 6/0
[Ci fib]
-23.1 -24.7 87 -35 -35 опасность
обморожения
1000.4 994.1
Ю 9-12
{12}
4000 м метель 4/0
[Ci fib]
-23.1 -24.8 86 -37 -37 опасность
обморожения
1001.9 995.5 -20.1
Ю 9-12
{13}
4000 м метель 3/0
[Ci fib]
-22.1 -23.7 87 -36 -36 опасность
обморожения
1002.4 996.1
Ю 11-15
{16}
2000 м метель 10/0
[Ac und]
-21.0 -22.5 88 -35 -35 опасность
обморожения
1003.6 997.3
Ю 12-17
{18}
2000 м метель 8/0
[Ac trans]
-20.6 -22.1 88 -35 -35 опасность
обморожения
1005.5 999.2
Ю 11-14
{17}
2000 м метель 10/0
[Ac und]
-19.7 -21.0 89 -34 -34 опасность
обморожения
1005.9 999.6 -23.3 16
Ю 13-17
{18}
2000 м метель 10/0
[Ac und]
-18.4 -19.6 90 -33 -33 опасность
обморожения
1005.1 998.9
Ю 14-19
{20}
1000 м метель 9/0
[Ac trans Ci fib]
-17.0 -18.1 91 -31 -31 опасность
обморожения
1003.6 997.4
Ю 16-22
{24}
500 м сильная метель 8/0
[Ac trans]
-16.4 -17.4 92 -31 -31 опасность
обморожения
1002.4 996.2
Ю 18-23
{25}
200 м сильная метель ?/? -13.9 -14.6 94 -28 -28 холодно 999.7 993.6 -13.8 0.3
Ю 18-24
{27}
200 м сильная метель ?/? -15.6 -16.4 94 -31 -31 опасность
обморожения
998.1 992.0
Ю 17-23
{25}
200 м сильная метель ?/? -15.8 -16.7 93 -31 -31 опасность
обморожения
998.4 992.3
Ю 15-20
{24}
500 м сильная метель ?/? -15.0 -15.9 93 -29 -29 холодно 997.7 991.6
ЮВ 12-14
{20}
2000 м метель 10/10 400 м
[Sc]
-14.6 -15.5 93 -27 -27 по сезону 997.7 991.6 -16.1 3
ЮВ 11-14
{17}
4000 м метель 10/10 360 м
[Sc]
-14.4 -15.5 91 -27 -27 по сезону 996.8 990.7
Ю 12-16
{16}
4000 м метель 10/6 360 м
[Sc Ac und]
-14.6 -16.0 89 -27 -27 по сезону 995.7 989.6
ЮВ 7-10
{16}
20 км позёмок 10/6 400 м
[Sc Ac und]
-14.5 -15.9 89 -25 -25 по сезону 996.2 990.1
Ю 8-12
{12}
20 км позёмок 10/0
[Ac und]
-13.8 -15.3 88 -24 -24 по сезону 994.9 988.8 -13.8
ЮВ 4
{12}
10 км слаб. ливневой снег {метель} 10/10 360 м
[Cb cap]
-13.7 -14.8 91 -21 -21 тепло 994.7 988.6
ЮВ 6
{11}
4000 м слаб. ливневой снег {метель} 10/10 420 м
[Cb cap]
-12.2 -13.1 93 -21 -21 тепло 993.8 987.8
ЮВ 5 4000 м слаб. ливневой снег {метель} 10/10 450 м
[Cb cap]
-12.8 -13.6 94 -21 -21 тепло 994.4 988.3
В 3 4000 м слаб. снег 10/0
[As op]
-13.5 -14.2 94 -20 -20 тепло 994.5 988.4 -14.1 0.2 17
Ю 2 4000 м слаб. снег 10/0
[As op]
-12.0 -12.6 95 -17 -17 тепло 995.0 989.0
В 5 10 км слаб. снег 10/0
[As op]
-12.5 -13.3 94 -21 -21 тепло 995.9 989.8
В 4 4000 м слаб. снег {метель} 10/0
[As op]
-13.4 -14.4 92 -21 -21 тепло 996.8 990.7
СВ 6 20 км позёмок {снег} 8/0
[Ac trans Ci fib]
-20.2 -21.6 89 -31 -31 опасность
обморожения
997.6 991.4 -11.3 0.4
В 5 20 км {метель} 8/0
[Ac trans Ci fib]
-21.8 -23.7 85 -32 -32 опасность
обморожения
998.3 992.0
В 6 20 км позёмок 6/0
[Ci fib]
-24.7 -26.7 83 -37 -37 опасность
обморожения
999.3 992.9
В 6
{10}
20 км позёмок 6/0
[Ci fib]
-25.3 -27.5 82 -38 -38 опасность
обморожения
1000.5 994.1
В 10-12
{12}
20 км сильный позёмок 6/0
[Ci fib]
-26.0 -28.3 81 -42 -42 опасность
обморожения
1001.4 995.0 -26.0 17
В 6-10
{12}
20 км позёмок 4/0
[Ci fib]
-26.8 -29.1 81 -40 -40 опасность
обморожения
1002.5 996.0 -26.9
В 5
{11}
20 км {метель} 3/0
[Ci fib]
-27.0 -29.7 78 -39 -39 опасность
обморожения
1002.9 996.4
В 5
{10}
20 км {метель} 6/0
[Ac trans Ci fib]
-25.7 -28.2 79 -37 -37 опасность
обморожения
1003.0 996.6
В 4
{10}
20 км {метель} 6/0
[Ac trans Ci fib]
-26.5 -29.1 79 -37 -37 опасность
обморожения
1004.0 997.5 -25.5
В 7
{10}
20 км позёмок ясно -26.4 -28.9 79 -40 -40 опасность
обморожения
1004.4 998.0
СВ 8-11
{11}
20 км позёмок 8/0
[Ac trans Ci fib]
-24.9 -26.9 83 -39 -39 опасность
обморожения
1004.4 998.0
СВ 7
{11}
20 км позёмок 8/0
[Ac trans Ci fib]
-24.4 -26.3 84 -37 -37 опасность
обморожения
1005.0 998.6
СВ 6
{10}
20 км позёмок 6/0
[Ac trans Ci fib]
-24.7 -26.6 84 -37 -37 опасность
обморожения
1005.5 999.1 -27.1 17
В 3 20 км {метель} 10/0
[Ac trans Ci fib]
-21.9 -23.5 87 -30 -30 по сезону 1005.8 999.5
СВ 2 10 км слаб. снег {метель} 10/0
[Ac As]
-19.0 -20.3 89 -25 -25 по сезону 1005.7 999.4
С 7 10 км слаб. снег {метель} 10/0
[As op]
-14.9 -15.7 94 -25 -25 по сезону 1005.9 999.7
С 7 10 км слаб. снег {метель} 10/0
[As trans]
-15.4 -16.8 89 -26 -26 по сезону 1006.6 1000.4 -14.8 0.2
С 6
{10}
20 км позёмок {снег} 10/0
[Ac und]
-15.8 -16.8 92 -26 -26 по сезону 1007.3 1001.1
С 6 20 км позёмок {снег} 10/0
[Ac und]
-16.1 -17.7 87 -26 -26 по сезону 1008.1 1001.9
ЮВ 2
{10}
20 км {метель} 10/0
[Ac trans Ci fib]
-18.2 -19.5 89 -24 -24 по сезону 1009.7 1003.5
С 3 20 км {метель} 10/0
[Ac und]
-16.9 -18.0 91 -24 -24 тепло 1010.8 1004.6 -18.4 0.0 17
С 4 20 км 10/6 360 м
[Sc Ac trans]
-16.8 -17.7 93 -25 -25 по сезону 1012.2 1005.9
Местоположение метеостанции Остров Диксон (Красноярский край, Россия): широта 73.52 долгота 80.40 высота над уровнем моря 56 м.
В архиве по умолчанию представлена погода на Острове Диксон за последнюю неделю. Архивные данные за месяц целиком и за предыдущие месяцы, начиная с января 2011 года, Вы можете получить, выбрав интересующий диапазон дат из раскрывающегося списка и нажав кнопку "Найти!".
*Определитесь, кто Вы:
Внимание! Время в таблицах - всемирное. Для получения местного времени необходимо прибавить поправку, которая равна 7 ч.
Смотрите также архив погоды в соседних городах и на ближайших метеорологических станциях:
Партнеры нашего сайта:      
Пояснения к столбцам:
  • Ветер - указаны скорость ветра в м/с - средняя за 10 мин, порывы в срок и между сроками (в фигурных скобках) и направление, откуда дует ветер: С - северный,
  • СВ - северо-восточный, В - восточный, ЮВ - юго-восточный, Ю - южный, ЮЗ - юго-западный, З - западный, СЗ - северо-западный.
  • Видимость - горизонтальная дальность видимости в метрах или километрах. При видимости от 1 до 10 км при отсутствии осадков обычно наблюдается дымка, при ухудшении видимости до 1 км и менее - туман. В сухую погоду видимость может ухудшаться дымом, пылью или мглою.
  • Явления - указаны атмосферные явления, наблюдавшиеся в срок или в последний час перед сроком; фигурными скобками обозначены явления, наблюдавшиеся между сроками (за 1-3 часа до срока); квадратными скобками обозначены град или гололедные отложения с указанием их диаметра в мм.
  • Облачность - указаны через наклонную черту общая и нижняя облачность в баллах и высота нижней границы облаков в метрах; квадратными скобками обозначены формы облаков: Ci - перистые, Cs - перисто-слоистые, Cc - перисто-кучевые, Ac - высококучевые, As - высокослоистые, Sc - слоисто-кучевые, Ns - слоисто-дождевые, Cu - кучевые, Cb - кучево-дождевые. Подробнее классификацию облаков см. в Атласе облаков (PDF).
  • T - Температура воздуха - температура, измеренная на высоте 2 м над землей.
  • Td - Температура точки росы - температура, при понижении до которой содержащийся в воздухе водяной пар достигнет насыщения.
  • f - Относительная влажность воздуха - влажноcть воздуха, измеренная на высоте 2 м над землей.
  • Te - Эффективная температура - температура, которую ощущает одетый по сезону человек в тени. Характеристика душности погоды. При расчете учитывается влияние влажности воздуха и скорости ветра на теплоощущения человека.
  • Tes - Эффективная температура на солнце - температура, которую ощущает человек, с поправкой на солнечный нагрев. Характеристика знойности погоды. Зависит от высоты солнца над горизонтом, облачности и скорости ветра. Ночью, в пасмурную погоду, а также при ветре 12 м/с и более поправка равна нулю.
  • P - Атмосферное давление - приведенное к уровню моря атмосферное давление.
  • Po - Атмосферное давление - измеренное на уровне метеостанции атмосферное давление.
  • Tmin - Минимальная температура - минимум температуры воздуха на высоте 2 м над землей.
  • Tmax - Максимальная температура - максимум температуры воздуха на высоте 2 м над землей.
  • R - Количество осадков - Количество выпавших осадков за период времени, мм. При наведении курсора мыши на число - период времени, за который выпало указанное количество осадков.
  • R24 - Количество осадков - Количество выпавших осадков за 24 часа, мм.
  • S - Снежный покров - Высота снежного покрова, см. При наведении курсора мыши на число - состояние снежного покрова и степень покрытия местности в баллах.